Regional Weather Roundup
Issued by NWS

Home | Current Version | Previous Version | Graphics & Text | Print | Product List | Glossary On
Versions: 1 2 3 4 5 6 7 8 9 10 11 12 13 14 15 16 17 18 19 20 21 22 23 24 25 26 27 28 29 30 31 32 33 34 35 36 37 38 39 40 41 42 43 44 45 46 47 48 49 50
738
ASUS45 KSLC 021310
RWRUT

UTAH REGIONAL WEATHER ROUNDUP
NATIONAL WEATHER SERVICE SALT LAKE CITY UT
700 AM MDT MON MAY 02 2016

UTZ001>011-023>025-021400-

NORTHERN UTAH

CITY           SKY/WX    TMP DP  RH WIND       PRES   REMARKS
BRIGHAM CITY   CLEAR     42  26  53 NW3       30.19R
HILL AFB       CLEAR     42  26  52 E14G26    30.18R
LOGAN          CLEAR     38  27  64 SE3       30.23R
OGDEN          CLEAR     43  27  53 CALM      30.17R
PROVO AIRPORT  PTCLDY    39  30  70 CALM      30.18R
SALT LAKE CITY MOCLDY    44  32  62 CALM      30.17R
VERNAL         CLEAR     33  23  66 W3        30.24R
WENDOVER       CLEAR     43  30  61 S3        30.17R
HEBER CITY     MOCLDY    32  28  86 CALM      30.23R

$$

UTZ012>022-026-027-021400-

SOUTHERN/CENTRAL UTAH

CITY           SKY/WX    TMP DP  RH WIND       PRES   REMARKS
BLANDING       CLOUDY    40  36  85 SE3       30.32R
BRYCE CANYON   CLOUDY    30  27  88 CALM      30.24R
CEDAR CITY     CLOUDY    42  38  85 CALM      30.16R
DELTA          CLOUDY    43  37  81 E5        30.17R
HANKSVILLE     CLOUDY    48  41  76 CALM      30.21R
MILFORD        CLOUDY    46  37  71 NW5       30.16R
MOAB/CYNLANDS  CLOUDY    50  40  68 SE5       30.19R
PRICE          PTCLDY    37  30  75 NE6       30.21R WCI  32
ST GEORGE      MOSUNNY   50  39  66 CALM      30.15R
KANAB          PTCLDY    45  39  81 N7        30.22R

$$

REGIONAL REPORTS     COLORADO/ARIZONA

CITY           SKY/WX    TMP DP  RH WIND       PRES   REMARKS
CRAIG, CO      CLEAR     26  22  84 CALM      30.27R
GRAND JUNCTION CLOUDY    45  40  82 SE8       30.21R
RIFLE          CLOUDY    43  39  86 CALM      30.23R
MONTROSE       CLOUDY    42  39  89 CALM      30.25R
CORTEZ         CLEAR     34  31  88 CALM      30.25R
PAGE, AZ       CLOUDY    50  40  68 CALM      30.17R
GRAND CANYON   CLEAR     30  27  88 CALM      30.20R
KINGMAN        PTCLDY    49  32  52 SE7       30.08R
FLAGSTAFF      CLEAR     27  26  96 CALM      30.19R

$$

REGIONAL REPORTS    NEVADA/IDAHO/WYOMING

CITY           SKY/WX    TMP DP  RH WIND       PRES   REMARKS
LAS VEGAS, NV  PTCLDY    59  43  55 NE5       30.02R
ELY            CLOUDY    30  28  92 S6        30.20R WCI  24
ELKO           CLEAR     34  29  82 E3        30.17R
POCATELLO, ID  CLEAR     36  27  69 E7        30.22R WCI  30
BURLEY         CLEAR     33  32  96 CALM      30.18R
EVANSTON, WY   CLOUDY    30  21  69 E7        30.27R WCI  23
ROCK SPRINGS   CLOUDY    30  21  69 CALM      30.29R

$$




USA.gov is the U.S. government's official web portal to all federal, state and local government web resources and services.